Location: Martz Observatory
(42.0083°N, 79.0667°W)
Time: 21:28:55
(UTC-04:00)

SL-24 R/B - RUBIN 2 - Pass Details

Date: 26 May 2018
Orbit: 603 x 993 km, 64.6° (Epoch: 17 June)

Event Time Altitude Azimuth Distance (km) Brightness Sun altitude
Exits shadow 03:47:48 26° 250° (WSW) 1,450 5.0 -17.5°
Maximum altitude 03:50:20 46° 308° (NW) 968 4.5 -17.2°
Drops below altitude 10° 03:54:56 10° 22° (NNE) 2,106 7.5 -16.6°
Sets 03:57:14 0° 29° (NNE) 2,976 8.7 -16.4°
